This demonstration page uses our WeatherBlox Daily Observations layout. Learn more.

Left ArrowRight Arrow

Hourly Observations for October 13, 2015

Temp ( °F °C ) Dew Point ( °F °C ) Humidity (%) Winds ( mph kmh ) Pressure ( in mb ) Visibility ( mi km ) Precip ( " mm )
12:15 am 00:15 Clear 41 5.1 35 1.9 80 80 NW 6 9 30.09 1019 10 16 N/A
12:35 am 00:35 Clear 42 5.3 36 2.1 80 80 Calm 30.09 1019 10 16 N/A
12:55 am 00:55 Clear 41 5 36 2 81 81 Calm 30.09 1019 10 16 N/A
1:15 am 01:15 Clear 40 4.5 35 1.7 82 82 NNW 5 7 30.09 1019 10 16 N/A
1:35 am 01:35 Clear 40 4.4 35 1.8 83 83 NW 3 6 30.09 1019 10 16 N/A
1:55 am 01:55 Clear 40 4.5 35 1.6 82 82 Calm 30.09 1019 10 16 N/A
2:15 am 02:15 Clear 40 4.6 34 1.2 79 79 Calm 30.09 1019 10 16 N/A
2:35 am 02:35 Clear 40 4.5 35 1.6 82 82 Calm 30.09 1019 10 16 N/A
2:55 am 02:55 Clear 40 4.2 35 1.8 85 85 WNW 3 6 30.06 1018 10 16 N/A
3:15 am 03:15 Clear 38 3.6 35 1.5 86 86 W 5 7 30.06 1018 10 16 N/A
3:35 am 03:35 Clear 38 3.6 35 1.5 86 86 W 5 7 30.06 1018 10 16 N/A
3:55 am 03:55 Clear 39 3.7 36 2 89 89 W 5 7 30.06 1018 10 16 N/A
4:15 am 04:15 Clear 39 3.8 35 1.6 86 86 W 3 6 30.06 1018 10 16 N/A
4:35 am 04:35 Clear 39 3.8 35 1.5 85 85 NW 3 6 30.06 1018 10 16 N/A
4:55 am 04:55 Clear 38 3.6 35 1.6 87 87 NW 5 7 30.06 1018 10 16 N/A
5:15 am 05:15 Clear 38 3.6 35 1.7 88 88 Calm 30.06 1018 10 16 N/A
5:35 am 05:35 Clear 38 3.5 35 1.5 87 87 WNW 3 6 30.06 1018 10 16 N/A
5:55 am 05:55 Clear 38 3.4 35 1.7 89 89 WNW 3 6 30.09 1019 10 16 N/A
6:15 am 06:15 Clear 38 3.2 35 1.4 88 88 WNW 5 7 30.09 1019 10 16 N/A
6:35 am 06:35 Clear 38 3.2 35 1.4 88 88 NW 5 7 30.09 1019 10 16 N/A
6:55 am 06:55 Clear 38 3.4 35 1.6 88 88 W 5 7 30.09 1019 10 16 N/A
7:15 am 07:15 Clear 37 3 34 1.3 89 89 WNW 5 7 30.09 1019 10 16 N/A
7:35 am 07:35 Clear 39 3.8 35 1.9 88 88 Calm 30.06 1018 10 16 N/A
7:55 am 07:55 Sunny 38 3.1 34 1.1 87 87 NNW 5 7 30.09 1019 10 16 N/A
8:15 am 08:15 Sunny 38 3.2 35 1.5 89 89 NW 5 7 30.09 1019 10 16 N/A
8:35 am 08:35 Sunny 40 4.4 37 2.6 88 88 NW 6 9 30.06 1018 10 16 N/A
8:55 am 08:55 Sunny 43 5.9 39 3.7 86 86 NW 3 6 30.09 1019 10 16 N/A
9:15 am 09:15 Sunny 46 7.8 40 4.7 81 81 Calm 30.06 1018 10 16 N/A
9:35 am 09:35 Sunny 49 9.5 42 5.5 76 76 WNW 6 9 30.06 1018 10 16 N/A
9:55 am 09:55 Sunny 52 11.3 42 5.6 68 68 WNW 5 7 30.03 1017 10 16 N/A
10:15 am 10:15 Sunny 55 13 42 5.6 61 61 W 6 9 30.03 1017 10 16 0.02 0.51
10:35 am 10:35 Sunny 59 14.8 43 6.3 57 57 WNW 5 7 30.00 1016 10 16 0.02 0.51
10:55 am 10:55 Sunny 61 16.3 43 6.3 52 52 Calm 30.00 1016 10 16 0.02 0.51
11:15 am 11:15 Sunny 64 18 42 5.5 44 44 WNW 3 6 29.97 1015 10 16 N/A
11:35 am 11:35 Sunny 67 19.4 41 4.8 38 38 WNW 3 6 29.97 1015 10 16 N/A
11:55 am 11:55 Sunny 69 20.6 42 5.8 38 38 WNW 6 9 29.94 1014 10 16 N/A
12:15 pm 12:15 Sunny 71 21.6 41 5.1 34 34 WNW 7 11 29.94 1014 10 16 N/A
12:35 pm 12:35 Sunny 73 22.8 40 4.4 30 30 W 7 11 29.94 1014 10 16 N/A
12:55 pm 12:55 Sunny 74 23.2 42 5.6 32 32 WNW 9 15 29.94 1014 10 16 0.00 0.00
1:15 pm 13:15 Sunny 76 24.3 40 4.6 28 28 W 6 9 29.91 1013 10 16 N/A
1:35 pm 13:35 Sunny 77 25.1 38 3.3 24 24 W 5 7 29.91 1013 10 16 N/A
1:55 pm 13:55 Sunny 78 25.6 40 4.7 26 26 NW 9 15 29.91 1013 10 16 N/A
2:15 pm 14:15 Sunny 79 25.9 40 4.7 26 26 NW 12 19 29.88 1012 10 16 N/A
2:35 pm 14:35 Sunny 79 26 38 3.5 23 23 WNW 9 15 29.88 1012 10 16 N/A
2:55 pm 14:55 Sunny 80 26.6 39 3.7 23 23 NNW 12 19 29.85 1011 10 16 N/A
3:15 pm 15:15 Sunny 80 26.8 37 3 21 21 NNW 14 22 29.85 1011 10 16 N/A
3:35 pm 15:35 Sunny 80 26.7 37 2.6 21 21 NW 13 20 29.85 1011 10 16 N/A
3:55 pm 15:55 Sunny 80 26.9 37 2.9 21 21 NW 13 20 29.85 1011 10 16 N/A
4:15 pm 16:15 Sunny 81 27 35 1.9 20 20 NNW 13 20 29.83 1010 10 16 N/A
4:35 pm 16:35 Sunny 81 27 34 0.9 18 18 NNW 15 24 29.85 1011 10 16 N/A
4:55 pm 16:55 Sunny 80 26.7 34 1.1 19 19 NNW 20 31 29.85 1011 10 16 N/A
5:15 pm 17:15 Sunny 79 26.2 35 1.7 20 20 N 10 17 29.88 1012 10 16 N/A
5:35 pm 17:35 Sunny 78 25.6 35 1.8 21 21 NNW 13 20 29.88 1012 10 16 N/A
5:55 pm 17:55 Sunny 77 25.1 35 1.8 22 22 N 12 19 29.88 1012 10 16 N/A
6:15 pm 18:15 Sunny 75 24 36 2.2 24 24 N 9 15 29.88 1012 10 16 N/A
6:35 pm 18:35 Sunny 72 22.4 37 3 28 28 N 6 9 29.91 1013 10 16 N/A
6:55 pm 18:55 Sunny 71 21.5 37 2.5 29 29 N 6 9 29.91 1013 10 16 N/A
7:15 pm 19:15 Clear 67 19.5 36 2.4 32 32 NNE 6 9 29.97 1015 10 16 N/A
7:35 pm 19:35 Clear 66 19 37 2.5 33 33 NNE 6 9 29.97 1015 10 16 N/A
7:55 pm 19:55 Clear 64 18 37 2.5 36 36 NNE 6 9 29.97 1015 10 16 N/A
8:15 pm 20:15 Clear 62 16.4 38 3.2 41 41 NNE 7 11 30.00 1016 10 16 N/A
8:35 pm 20:35 Clear 60 15.5 38 3.5 45 45 NNE 7 11 30.00 1016 10 16 N/A
8:55 pm 20:55 Clear 60 15.6 38 3.2 44 44 Calm 30.00 1016 10 16 N/A
9:15 pm 21:15 Clear 53 11.6 41 5 64 64 S 3 6 30.03 1017 10 16 N/A
9:35 pm 21:35 Clear 55 12.8 40 4.5 57 57 NE 3 6 30.03 1017 10 16 N/A
9:55 pm 21:55 Clear 53 11.7 40 4.6 62 62 Calm 30.03 1017 10 16 N/A
10:15 pm 22:15 Clear 53 11.7 40 4.6 62 62 Calm 30.03 1017 10 16 N/A
10:35 pm 22:35 Clear 49 9.6 41 4.8 72 72 NE 3 6 30.06 1018 10 16 N/A
10:55 pm 22:55 Clear 48 9.1 40 4.7 74 74 N 5 7 30.06 1018 10 16 N/A
11:15 pm 23:15 Clear 49 9.3 40 4.7 73 73 N 5 7 30.09 1019 10 16 N/A
11:35 pm 23:35 Clear 45 7.2 39 4 80 80 N 5 7 30.09 1019 10 16 N/A
11:55 pm 23:55 Clear 48 8.9 40 4.7 75 75 N 3 6 30.06 1018 10 16 N/A

Powered by AerisWeather